Вернуться в каталог

ORBCOMM FM 116

АктивенСвязьLEO
NORAD 41189·PAYLOAD·🇺🇸 United States

Запущен Dec 22, 2015 с Cape Canaveral Space Force Station

Loading…

Ближайшие Пролёты (ближайшие 24 часа)

TLE

СвежийSource: Space-Track

Эпоха: Sep 14, 2026, 14:31 UTC

1 41189U 15081L   26257.60509260  .00000331  00000-0  10604-3 0  9999
2 41189  47.0014 207.8050 0000478 105.5799 254.5140 14.58958505571990

Отслеживайте ORBCOMM FM 116 в реальном времени с AllMySat

Download on the App Store